owner,sensor,date,latitude,longitude,vertical_datum,wind_speed,wind_to_direction,wind_speed_of_gust,qcFlag 
TCOON,ioos:station:TCOON:031:1,2016-12-01T00:00:00Z,28.4073,-96.7122,0.0,2.0,6.0,2.8,'11111222,11111222,11111222' 
TCOON,ioos:station:TCOON:031:1,2016-12-01T00:06:00Z,28.4073,-96.7122,0.0,1.9,7.0,2.8,'11111222,11111222,11111222' 
TCOON,ioos:station:TCOON:031:1,2016-12-01T00:12:00Z,28.4073,-96.7122,0.0,1.6,7.0,3.2,'11111222,11111222,11111222' 
TCOON,ioos:station:TCOON:031:1,2016-12-01T00:18:00Z,28.4073,-96.7122,0.0,1.6,7.0,3.2,'1111122,1111122,1111122' 
TCOON,ioos:station:TCOON:031:1,2016-12-01T00:24:00Z,28.4073,-96.7122,0.0,1.8,4.0,2.3,'11111222,11111222,11111222' 
TCOON,ioos:station:TCOON:031:1,2016-12-01T00:30:00Z,28.4073,-96.7122,0.0,2.2,6.0,3.0,'11111222,11111222,11111222' 
TCOON,ioos:station:TCOON:031:1,2016-12-01T00:36:00Z,28.4073,-96.7122,0.0,1.9,358.0,2.8,'11111222,11111222,11111222' 
TCOON,ioos:station:TCOON:031:1,2016-12-01T00:42:00Z,28.4073,-96.7122,0.0,1.5,8.0,2.5,'11111222,11111222,11111222' 
TCOON,ioos:station:TCOON:031:1,2016-12-01T00:48:00Z,28.4073,-96.7122,0.0,1.6,356.0,2.6,'11111222,11111222,11111222' 
TCOON,ioos:station:TCOON:031:1,2016-12-01T00:54:00Z,28.4073,-96.7122,0.0,1.5,3.0,2.2,'11111222,11111222,11111222' 
TCOON,ioos:station:TCOON:031:1,2016-12-01T01:00:00Z,28.4073,-96.7122,0.0,1.6,5.0,2.3,'11111222,11111222,11111222' 
TCOON,ioos:station:TCOON:031:1,2016-12-01T01:06:00Z,28.4073,-96.7122,0.0,1.5,13.0,2.1,'11111222,11111222,11111222' 
TCOON,ioos:station:TCOON:031:1,2016-12-01T01:12:00Z,28.4073,-96.7122,0.0,1.5,11.0,2.1,'11111222,11111222,11111222' 
TCOON,ioos:station:TCOON:031:1,2016-12-01T01:18:00Z,28.4073,-96.7122,0.0,1.5,11.0,2.1,'1111122,1111122,1111122' 
TCOON,ioos:station:TCOON:031:1,2016-12-01T01:24:00Z,28.4073,-96.7122,0.0,2.0,4.0,2.5,'11111222,11111222,11111222' 
TCOON,ioos:station:TCOON:031:1,2016-12-01T01:30:00Z,28.4073,-96.7122,0.0,1.9,355.0,2.9,'11111222,11111222,11111222' 
TCOON,ioos:station:TCOON:031:1,2016-12-01T01:36:00Z,28.4073,-96.7122,0.0,1.6,355.0,2.3,'11111222,11111222,11111222' 
TCOON,ioos:station:TCOON:031:1,2016-12-01T01:42:00Z,28.4073,-96.7122,0.0,1.6,8.0,2.2,'11111222,11111222,11111222' 
TCOON,ioos:station:TCOON:031:1,2016-12-01T01:48:00Z,28.4073,-96.7122,0.0,1.5,6.0,2.3,'11111222,11111222,11111222' 
TCOON,ioos:station:TCOON:031:1,2016-12-01T01:54:00Z,28.4073,-96.7122,0.0,1.8,5.0,2.4,'11111222,11111222,11111222' 
TCOON,ioos:station:TCOON:031:1,2016-12-01T02:00:00Z,28.4073,-96.7122,0.0,1.8,2.0,2.4,'11111222,11111222,11111222' 
TCOON,ioos:station:TCOON:031:1,2016-12-01T02:06:00Z,28.4073,-96.7122,0.0,1.7,1.0,2.2,'11111222,11111222,11111222' 
TCOON,ioos:station:TCOON:031:1,2016-12-01T02:12:00Z,28.4073,-96.7122,0.0,1.7,360.0,2.4,'11111222,11144222,11111222' 
TCOON,ioos:station:TCOON:031:1,2016-12-01T02:18:00Z,28.4073,-96.7122,0.0,1.7,360.0,2.4,'1111122,1111122,1111122' 
TCOON,ioos:station:TCOON:031:1,2016-12-01T02:24:00Z,28.4073,-96.7122,0.0,1.5,3.0,2.2,'11111222,11111222,11111222' 
TCOON,ioos:station:TCOON:031:1,2016-12-01T02:30:00Z,28.4073,-96.7122,0.0,1.7,360.0,2.5,'11111222,11144222,11111222' 
TCOON,ioos:station:TCOON:031:1,2016-12-01T02:36:00Z,28.4073,-96.7122,0.0,1.7,354.0,2.7,'11111222,11111222,11111222' 
TCOON,ioos:station:TCOON:031:1,2016-12-01T02:42:00Z,28.4073,-96.7122,0.0,1.5,4.0,2.5,'11111222,11111222,11111222' 
TCOON,ioos:station:TCOON:031:1,2016-12-01T02:48:00Z,28.4073,-96.7122,0.0,1.5,355.0,2.1,'11111222,11111222,11111222' 
TCOON,ioos:station:TCOON:031:1,2016-12-01T02:54:00Z,28.4073,-96.7122,0.0,1.6,359.0,2.3,'11111222,11111222,11111222' 
TCOON,ioos:station:TCOON:031:1,2016-12-01T03:00:00Z,28.4073,-96.7122,0.0,1.4,355.0,2.3,'11111222,11111222,11111222' 
TCOON,ioos:station:TCOON:031:1,2016-12-01T03:06:00Z,28.4073,-96.7122,0.0,1.4,358.0,1.8,'11111222,11111222,11111222' 
TCOON,ioos:station:TCOON:031:1,2016-12-01T03:12:00Z,28.4073,-96.7122,0.0,1.1,9.0,1.7,'11111222,11111222,11111222' 
TCOON,ioos:station:TCOON:031:1,2016-12-01T03:18:00Z,28.4073,-96.7122,0.0,1.1,9.0,1.7,'1111122,1111122,1111122' 
TCOON,ioos:station:TCOON:031:1,2016-12-01T03:24:00Z,28.4073,-96.7122,0.0,1.8,6.0,2.1,'11111222,11111222,11111222' 
TCOON,ioos:station:TCOON:031:1,2016-12-01T03:30:00Z,28.4073,-96.7122,0.0,1.7,358.0,2.1,'11111222,11111222,11111222' 
TCOON,ioos:station:TCOON:031:1,2016-12-01T03:36:00Z,28.4073,-96.7122,0.0,1.7,353.0,2.0,'11111222,11111222,11111222' 
TCOON,ioos:station:TCOON:031:1,2016-12-01T03:42:00Z,28.4073,-96.7122,0.0,1.5,351.0,1.8,'11111222,11111222,11111222' 
TCOON,ioos:station:TCOON:031:1,2016-12-01T03:48:00Z,28.4073,-96.7122,0.0,1.8,344.0,2.4,'11111222,11111222,11111222' 
TCOON,ioos:station:TCOON:031:1,2016-12-01T03:54:00Z,28.4073,-96.7122,0.0,1.7,350.0,2.3,'11111222,11111222,11111222' 
TCOON,ioos:station:TCOON:031:1,2016-12-01T04:00:00Z,28.4073,-96.7122,0.0,1.6,349.0,2.2,'11111222,11111222,11111222' 
TCOON,ioos:station:TCOON:031:1,2016-12-01T04:06:00Z,28.4073,-96.7122,0.0,2.0,338.0,2.4,'11111222,11111222,11111222' 
TCOON,ioos:station:TCOON:031:1,2016-12-01T04:12:00Z,28.4073,-96.7122,0.0,1.6,341.0,2.1,'11111222,11111222,11111222' 
TCOON,ioos:station:TCOON:031:1,2016-12-01T04:18:00Z,28.4073,-96.7122,0.0,1.7,348.0,2.4,'11111222,11111222,11111222' 
TCOON,ioos:station:TCOON:031:1,2016-12-01T04:24:00Z,28.4073,-96.7122,0.0,1.7,348.0,2.4,'1111122,1111122,1111122' 
TCOON,ioos:station:TCOON:031:1,2016-12-01T04:30:00Z,28.4073,-96.7122,0.0,1.9,347.0,2.5,'11111222,11111222,11111222' 
TCOON,ioos:station:TCOON:031:1,2016-12-01T04:36:00Z,28.4073,-96.7122,0.0,1.9,357.0,2.4,'11111222,11111222,11111222' 
TCOON,ioos:station:TCOON:031:1,2016-12-01T04:42:00Z,28.4073,-96.7122,0.0,2.0,353.0,2.5,'11111222,11111222,11111222' 
TCOON,ioos:station:TCOON:031:1,2016-12-01T04:48:00Z,28.4073,-96.7122,0.0,2.1,353.0,2.5,'11111222,11111222,11111222' 
TCOON,ioos:station:TCOON:031:1,2016-12-01T04:54:00Z,28.4073,-96.7122,0.0,2.3,348.0,2.6,'11111222,11111222,11111222' 
TCOON,ioos:station:TCOON:031:1,2016-12-01T05:00:00Z,28.4073,-96.7122,0.0,2.0,2.0,2.7,'11111222,11111222,11111222' 
TCOON,ioos:station:TCOON:031:1,2016-12-01T05:06:00Z,28.4073,-96.7122,0.0,2.0,350.0,2.3,'11111222,11111222,11111222' 
TCOON,ioos:station:TCOON:031:1,2016-12-01T05:12:00Z,28.4073,-96.7122,0.0,1.7,4.0,2.6,'11111222,11111222,11111222' 
TCOON,ioos:station:TCOON:031:1,2016-12-01T05:18:00Z,28.4073,-96.7122,0.0,1.7,4.0,2.6,'1111122,1111122,1111122' 
TCOON,ioos:station:TCOON:031:1,2016-12-01T05:24:00Z,28.4073,-96.7122,0.0,2.0,10.0,2.3,'11111222,11111222,11111222' 
TCOON,ioos:station:TCOON:031:1,2016-12-01T05:30:00Z,28.4073,-96.7122,0.0,2.1,354.0,2.4,'11111222,11111222,11111222' 
TCOON,ioos:station:TCOON:031:1,2016-12-01T05:36:00Z,28.4073,-96.7122,0.0,2.5,348.0,3.0,'11111222,11111222,11111222' 
TCOON,ioos:station:TCOON:031:1,2016-12-01T05:42:00Z,28.4073,-96.7122,0.0,2.6,357.0,3.2,'11111222,11111222,11111222' 
TCOON,ioos:station:TCOON:031:1,2016-12-01T05:48:00Z,28.4073,-96.7122,0.0,2.3,358.0,3.1,'11111222,11111222,11111222' 
TCOON,ioos:station:TCOON:031:1,2016-12-01T05:54:00Z,28.4073,-96.7122,0.0,2.6,351.0,3.2,'11111222,11111222,11111222' 
TCOON,ioos:station:TCOON:031:1,2016-12-01T06:00:00Z,28.4073,-96.7122,0.0,2.4,359.0,3.2,'11111222,11111222,11111222' 
TCOON,ioos:station:TCOON:031:1,2016-12-01T06:06:00Z,28.4073,-96.7122,0.0,2.1,4.0,2.7,'11111222,11111222,11111222' 
TCOON,ioos:station:TCOON:031:1,2016-12-01T06:12:00Z,28.4073,-96.7122,0.0,2.4,4.0,2.9,'11111222,11111222,11111222' 
TCOON,ioos:station:TCOON:031:1,2016-12-01T06:18:00Z,28.4073,-96.7122,0.0,2.4,4.0,2.9,'1111122,1111122,1111122' 
TCOON,ioos:station:TCOON:031:1,2016-12-01T06:24:00Z,28.4073,-96.7122,0.0,2.6,351.0,3.3,'11111222,11111222,11111222' 
TCOON,ioos:station:TCOON:031:1,2016-12-01T06:30:00Z,28.4073,-96.7122,0.0,2.8,357.0,3.5,'11111222,11111222,11111222' 
TCOON,ioos:station:TCOON:031:1,2016-12-01T06:36:00Z,28.4073,-96.7122,0.0,2.7,2.0,3.6,'11111222,11111222,11111222' 
TCOON,ioos:station:TCOON:031:1,2016-12-01T06:42:00Z,28.4073,-96.7122,0.0,2.6,359.0,3.6,'11111222,11111222,11111222' 
TCOON,ioos:station:TCOON:031:1,2016-12-01T06:48:00Z,28.4073,-96.7122,0.0,2.8,357.0,3.6,'11111222,11111222,11111222' 
TCOON,ioos:station:TCOON:031:1,2016-12-01T06:54:00Z,28.4073,-96.7122,0.0,2.9,360.0,3.7,'11111222,11144222,11111222' 
TCOON,ioos:station:TCOON:031:1,2016-12-01T07:00:00Z,28.4073,-96.7122,0.0,2.8,1.0,3.9,'11111222,11111222,11111222' 
TCOON,ioos:station:TCOON:031:1,2016-12-01T07:06:00Z,28.4073,-96.7122,0.0,2.8,4.0,3.6,'11111222,11111222,11111222' 
TCOON,ioos:station:TCOON:031:1,2016-12-01T07:12:00Z,28.4073,-96.7122,0.0,3.0,7.0,4.1,'11111222,11111222,11111222' 
TCOON,ioos:station:TCOON:031:1,2016-12-01T07:18:00Z,28.4073,-96.7122,0.0,3.0,7.0,4.1,'1111122,1111122,1111122' 
TCOON,ioos:station:TCOON:031:1,2016-12-01T07:24:00Z,28.4073,-96.7122,0.0,3.3,6.0,4.1,'11111222,11111222,11111222' 
TCOON,ioos:station:TCOON:031:1,2016-12-01T07:30:00Z,28.4073,-96.7122,0.0,3.0,8.0,4.4,'11111222,11111222,11111222' 
TCOON,ioos:station:TCOON:031:1,2016-12-01T07:36:00Z,28.4073,-96.7122,0.0,2.7,7.0,3.8,'11111222,11111222,11111222' 
TCOON,ioos:station:TCOON:031:1,2016-12-01T07:42:00Z,28.4073,-96.7122,0.0,2.5,6.0,3.5,'11111222,11111222,11111222' 
TCOON,ioos:station:TCOON:031:1,2016-12-01T07:48:00Z,28.4073,-96.7122,0.0,2.4,4.0,3.2,'11111222,11111222,11111222' 
TCOON,ioos:station:TCOON:031:1,2016-12-01T07:54:00Z,28.4073,-96.7122,0.0,2.7,3.0,3.5,'11111222,11111222,11111222' 
TCOON,ioos:station:TCOON:031:1,2016-12-01T08:00:00Z,28.4073,-96.7122,0.0,2.5,8.0,3.3,'11111222,11111222,11111222' 
TCOON,ioos:station:TCOON:031:1,2016-12-01T08:06:00Z,28.4073,-96.7122,0.0,2.6,6.0,3.4,'11111222,11111222,11111222' 
TCOON,ioos:station:TCOON:031:1,2016-12-01T08:12:00Z,28.4073,-96.7122,0.0,2.6,11.0,3.3,'11111222,11111222,11111222' 
TCOON,ioos:station:TCOON:031:1,2016-12-01T08:18:00Z,28.4073,-96.7122,0.0,2.6,11.0,3.3,'1111122,1111122,1111122' 
TCOON,ioos:station:TCOON:031:1,2016-12-01T08:24:00Z,28.4073,-96.7122,0.0,2.6,15.0,3.5,'11111222,11111222,11111222' 
TCOON,ioos:station:TCOON:031:1,2016-12-01T08:30:00Z,28.4073,-96.7122,0.0,2.5,17.0,3.5,'11111222,11111222,11111222' 
TCOON,ioos:station:TCOON:031:1,2016-12-01T08:36:00Z,28.4073,-96.7122,0.0,2.7,16.0,3.6,'11111222,11111222,11111222' 
TCOON,ioos:station:TCOON:031:1,2016-12-01T08:42:00Z,28.4073,-96.7122,0.0,2.4,20.0,3.7,'11111222,11111222,11111222' 
TCOON,ioos:station:TCOON:031:1,2016-12-01T08:48:00Z,28.4073,-96.7122,0.0,2.8,18.0,3.8,'11111222,11111222,11111222' 
TCOON,ioos:station:TCOON:031:1,2016-12-01T08:54:00Z,28.4073,-96.7122,0.0,2.4,24.0,3.7,'11111222,11111222,11111222' 
TCOON,ioos:station:TCOON:031:1,2016-12-01T09:00:00Z,28.4073,-96.7122,0.0,2.7,16.0,3.7,'11111222,11111222,11111222' 
TCOON,ioos:station:TCOON:031:1,2016-12-01T09:06:00Z,28.4073,-96.7122,0.0,2.2,17.0,3.7,'11111222,11111222,11111222' 
TCOON,ioos:station:TCOON:031:1,2016-12-01T09:12:00Z,28.4073,-96.7122,0.0,2.4,16.0,4.0,'11111222,11111222,11111222' 
TCOON,ioos:station:TCOON:031:1,2016-12-01T09:18:00Z,28.4073,-96.7122,0.0,2.4,16.0,4.0,'1111122,1111122,1111122' 
TCOON,ioos:station:TCOON:031:1,2016-12-01T09:24:00Z,28.4073,-96.7122,0.0,2.1,17.0,3.2,'11111222,11111222,11111222' 
TCOON,ioos:station:TCOON:031:1,2016-12-01T09:30:00Z,28.4073,-96.7122,0.0,2.6,17.0,3.5,'11111222,11111222,11111222' 
TCOON,ioos:station:TCOON:031:1,2016-12-01T09:36:00Z,28.4073,-96.7122,0.0,2.3,17.0,3.2,'11111222,11111222,11111222' 
TCOON,ioos:station:TCOON:031:1,2016-12-01T09:42:00Z,28.4073,-96.7122,0.0,2.2,15.0,3.1,'11111222,11111222,11111222' 
TCOON,ioos:station:TCOON:031:1,2016-12-01T09:48:00Z,28.4073,-96.7122,0.0,2.9,12.0,3.9,'11111222,11111222,11111222' 
TCOON,ioos:station:TCOON:031:1,2016-12-01T09:54:00Z,28.4073,-96.7122,0.0,2.7,6.0,3.8,'11111222,11111222,11111222' 
TCOON,ioos:station:TCOON:031:1,2016-12-01T10:00:00Z,28.4073,-96.7122,0.0,2.8,11.0,3.9,'11111222,11111222,11111222' 
TCOON,ioos:station:TCOON:031:1,2016-12-01T10:06:00Z,28.4073,-96.7122,0.0,2.8,10.0,3.8,'11111222,11111222,11111222' 
TCOON,ioos:station:TCOON:031:1,2016-12-01T10:12:00Z,28.4073,-96.7122,0.0,2.7,13.0,3.7,'11111222,11111222,11111222' 
TCOON,ioos:station:TCOON:031:1,2016-12-01T10:18:00Z,28.4073,-96.7122,0.0,2.7,13.0,3.7,'1111122,1111122,1111122' 
TCOON,ioos:station:TCOON:031:1,2016-12-01T10:24:00Z,28.4073,-96.7122,0.0,3.0,9.0,4.5,'11111222,11111222,11111222' 
TCOON,ioos:station:TCOON:031:1,2016-12-01T10:30:00Z,28.4073,-96.7122,0.0,3.0,8.0,4.3,'11111222,11111222,11111222' 
TCOON,ioos:station:TCOON:031:1,2016-12-01T10:36:00Z,28.4073,-96.7122,0.0,2.7,13.0,4.2,'11111222,11111222,11111222' 
TCOON,ioos:station:TCOON:031:1,2016-12-01T10:42:00Z,28.4073,-96.7122,0.0,2.5,10.0,3.8,'11111222,11111222,11111222' 
TCOON,ioos:station:TCOON:031:1,2016-12-01T10:48:00Z,28.4073,-96.7122,0.0,3.2,16.0,4.1,'11111222,11111222,11111222' 
TCOON,ioos:station:TCOON:031:1,2016-12-01T10:54:00Z,28.4073,-96.7122,0.0,2.6,19.0,4.0,'11111222,11111222,11111222' 
TCOON,ioos:station:TCOON:031:1,2016-12-01T11:00:00Z,28.4073,-96.7122,0.0,2.4,22.0,3.4,'11111222,11111222,11111222' 
TCOON,ioos:station:TCOON:031:1,2016-12-01T11:06:00Z,28.4073,-96.7122,0.0,2.4,26.0,3.6,'11111222,11111222,11111222' 
TCOON,ioos:station:TCOON:031:1,2016-12-01T11:12:00Z,28.4073,-96.7122,0.0,2.7,26.0,3.6,'11111222,11111222,11111222' 
TCOON,ioos:station:TCOON:031:1,2016-12-01T11:18:00Z,28.4073,-96.7122,0.0,2.7,26.0,3.6,'1111122,1111122,1111122' 
TCOON,ioos:station:TCOON:031:1,2016-12-01T11:24:00Z,28.4073,-96.7122,0.0,2.7,18.0,3.9,'11111222,11111222,11111222' 
TCOON,ioos:station:TCOON:031:1,2016-12-01T11:30:00Z,28.4073,-96.7122,0.0,2.6,23.0,3.8,'11111222,11111222,11111222' 
TCOON,ioos:station:TCOON:031:1,2016-12-01T11:36:00Z,28.4073,-96.7122,0.0,2.6,20.0,3.4,'11111222,11111222,11111222' 
TCOON,ioos:station:TCOON:031:1,2016-12-01T11:42:00Z,28.4073,-96.7122,0.0,2.7,17.0,4.2,'11111222,11111222,11111222' 
TCOON,ioos:station:TCOON:031:1,2016-12-01T11:48:00Z,28.4073,-96.7122,0.0,2.7,12.0,3.8,'11111222,11111222,11111222' 
TCOON,ioos:station:TCOON:031:1,2016-12-01T11:54:00Z,28.4073,-96.7122,0.0,2.6,15.0,4.2,'11111222,11111222,11111222' 
TCOON,ioos:station:TCOON:031:1,2016-12-01T12:00:00Z,28.4073,-96.7122,0.0,2.6,13.0,3.6,'11111222,11111222,11111222' 
TCOON,ioos:station:TCOON:031:1,2016-12-01T12:06:00Z,28.4073,-96.7122,0.0,3.3,15.0,4.5,'11111222,11111222,11111222' 
TCOON,ioos:station:TCOON:031:1,2016-12-01T12:12:00Z,28.4073,-96.7122,0.0,2.8,14.0,4.3,'11111222,11111222,11111222' 
TCOON,ioos:station:TCOON:031:1,2016-12-01T12:18:00Z,28.4073,-96.7122,0.0,2.8,14.0,4.3,'1111122,1111122,1111122' 
TCOON,ioos:station:TCOON:031:1,2016-12-01T12:24:00Z,28.4073,-96.7122,0.0,2.9,13.0,4.4,'11111222,11111222,11111222' 
TCOON,ioos:station:TCOON:031:1,2016-12-01T12:30:00Z,28.4073,-96.7122,0.0,2.6,15.0,3.9,'11111222,11111222,11111222' 
TCOON,ioos:station:TCOON:031:1,2016-12-01T12:36:00Z,28.4073,-96.7122,0.0,2.7,13.0,3.9,'11111222,11111222,11111222' 
TCOON,ioos:station:TCOON:031:1,2016-12-01T12:42:00Z,28.4073,-96.7122,0.0,3.0,12.0,4.0,'11111222,11111222,11111222' 
TCOON,ioos:station:TCOON:031:1,2016-12-01T12:48:00Z,28.4073,-96.7122,0.0,2.9,12.0,4.1,'11111222,11111222,11111222' 
TCOON,ioos:station:TCOON:031:1,2016-12-01T12:54:00Z,28.4073,-96.7122,0.0,3.0,19.0,4.4,'11111222,11111222,11111222' 
TCOON,ioos:station:TCOON:031:1,2016-12-01T13:00:00Z,28.4073,-96.7122,0.0,3.2,17.0,4.2,'11111222,11111222,11111222' 
TCOON,ioos:station:TCOON:031:1,2016-12-01T13:06:00Z,28.4073,-96.7122,0.0,3.0,13.0,5.3,'11111222,11111222,11111222' 
TCOON,ioos:station:TCOON:031:1,2016-12-01T13:12:00Z,28.4073,-96.7122,0.0,3.5,7.0,4.8,'11111222,11111222,11111222' 
TCOON,ioos:station:TCOON:031:1,2016-12-01T13:18:00Z,28.4073,-96.7122,0.0,3.5,7.0,4.8,'1111122,1111122,1111122' 
TCOON,ioos:station:TCOON:031:1,2016-12-01T13:24:00Z,28.4073,-96.7122,0.0,3.3,20.0,4.3,'11111222,11111222,11111222' 
TCOON,ioos:station:TCOON:031:1,2016-12-01T13:30:00Z,28.4073,-96.7122,0.0,3.0,23.0,4.4,'11111222,11111222,11111222' 
TCOON,ioos:station:TCOON:031:1,2016-12-01T13:36:00Z,28.4073,-96.7122,0.0,2.8,25.0,4.4,'11111222,11111222,11111222' 
TCOON,ioos:station:TCOON:031:1,2016-12-01T13:42:00Z,28.4073,-96.7122,0.0,2.4,32.0,4.3,'11111222,11111222,11111222' 
TCOON,ioos:station:TCOON:031:1,2016-12-01T13:48:00Z,28.4073,-96.7122,0.0,2.4,39.0,4.5,'11111222,11111222,11111222' 
TCOON,ioos:station:TCOON:031:1,2016-12-01T13:54:00Z,28.4073,-96.7122,0.0,2.5,36.0,3.7,'11111222,11111222,11111222' 
TCOON,ioos:station:TCOON:031:1,2016-12-01T14:00:00Z,28.4073,-96.7122,0.0,2.6,29.0,4.0,'11111222,11111222,11111222' 
TCOON,ioos:station:TCOON:031:1,2016-12-01T14:06:00Z,28.4073,-96.7122,0.0,2.6,28.0,3.6,'11111222,11111222,11111222' 
TCOON,ioos:station:TCOON:031:1,2016-12-01T14:12:00Z,28.4073,-96.7122,0.0,3.4,27.0,4.8,'11111222,11111222,11111222' 
TCOON,ioos:station:TCOON:031:1,2016-12-01T14:18:00Z,28.4073,-96.7122,0.0,3.4,27.0,4.8,'1111122,1111122,1111122' 
TCOON,ioos:station:TCOON:031:1,2016-12-01T14:24:00Z,28.4073,-96.7122,0.0,3.4,29.0,4.8,'11111222,11111222,11111222' 
TCOON,ioos:station:TCOON:031:1,2016-12-01T14:30:00Z,28.4073,-96.7122,0.0,3.9,34.0,7.2,'11111222,11111222,11111222' 
TCOON,ioos:station:TCOON:031:1,2016-12-01T14:36:00Z,28.4073,-96.7122,0.0,4.2,35.0,6.2,'11111222,11111222,11111222' 
TCOON,ioos:station:TCOON:031:1,2016-12-01T14:42:00Z,28.4073,-96.7122,0.0,4.2,36.0,6.9,'11111222,11111222,11111222' 
TCOON,ioos:station:TCOON:031:1,2016-12-01T14:48:00Z,28.4073,-96.7122,0.0,5.9,38.0,7.3,'11111222,11111222,11111222' 
TCOON,ioos:station:TCOON:031:1,2016-12-01T14:54:00Z,28.4073,-96.7122,0.0,3.6,39.0,6.7,'11111222,11111222,11111222' 
TCOON,ioos:station:TCOON:031:1,2016-12-01T15:00:00Z,28.4073,-96.7122,0.0,4.5,41.0,6.7,'11111222,11111222,11111222' 
TCOON,ioos:station:TCOON:031:1,2016-12-01T15:06:00Z,28.4073,-96.7122,0.0,4.6,43.0,6.1,'11111222,11111222,11111222' 
TCOON,ioos:station:TCOON:031:1,2016-12-01T15:12:00Z,28.4073,-96.7122,0.0,3.9,44.0,6.5,'11111222,11111222,11111222' 
TCOON,ioos:station:TCOON:031:1,2016-12-01T15:18:00Z,28.4073,-96.7122,0.0,3.9,44.0,6.5,'1111122,1111122,1111122' 
TCOON,ioos:station:TCOON:031:1,2016-12-01T15:24:00Z,28.4073,-96.7122,0.0,5.1,36.0,6.5,'11111222,11111222,11111222' 
TCOON,ioos:station:TCOON:031:1,2016-12-01T15:30:00Z,28.4073,-96.7122,0.0,4.6,50.0,7.0,'11111222,11111222,11111222' 
TCOON,ioos:station:TCOON:031:1,2016-12-01T15:36:00Z,28.4073,-96.7122,0.0,5.5,42.0,7.1,'11111222,11111222,11111222' 
TCOON,ioos:station:TCOON:031:1,2016-12-01T15:42:00Z,28.4073,-96.7122,0.0,4.4,46.0,5.7,'11111222,11111222,11111222' 
TCOON,ioos:station:TCOON:031:1,2016-12-01T15:48:00Z,28.4073,-96.7122,0.0,4.4,44.0,6.0,'11111222,11111222,11111222' 
TCOON,ioos:station:TCOON:031:1,2016-12-01T15:54:00Z,28.4073,-96.7122,0.0,4.3,48.0,6.6,'11111222,11111222,11111222' 
TCOON,ioos:station:TCOON:031:1,2016-12-01T16:00:00Z,28.4073,-96.7122,0.0,5.2,48.0,7.4,'11111222,11111222,11111222' 
TCOON,ioos:station:TCOON:031:1,2016-12-01T16:06:00Z,28.4073,-96.7122,0.0,5.4,45.0,7.1,'11111222,11111222,11111222' 
TCOON,ioos:station:TCOON:031:1,2016-12-01T16:12:00Z,28.4073,-96.7122,0.0,4.2,52.0,7.7,'11111222,11111222,11111222' 
TCOON,ioos:station:TCOON:031:1,2016-12-01T16:18:00Z,28.4073,-96.7122,0.0,3.7,58.0,7.0,'11111222,11111222,11111222' 
TCOON,ioos:station:TCOON:031:1,2016-12-01T16:24:00Z,28.4073,-96.7122,0.0,3.7,58.0,7.0,'1111122,1111122,1111122' 
TCOON,ioos:station:TCOON:031:1,2016-12-01T16:30:00Z,28.4073,-96.7122,0.0,4.6,51.0,7.4,'11111222,11111222,11111222' 
TCOON,ioos:station:TCOON:031:1,2016-12-01T16:36:00Z,28.4073,-96.7122,0.0,3.9,59.0,5.5,'11111222,11111222,11111222' 
TCOON,ioos:station:TCOON:031:1,2016-12-01T16:42:00Z,28.4073,-96.7122,0.0,5.6,58.0,7.8,'11111222,11111222,11111222' 
TCOON,ioos:station:TCOON:031:1,2016-12-01T16:48:00Z,28.4073,-96.7122,0.0,4.2,70.0,7.8,'11111222,11111222,11111222' 
TCOON,ioos:station:TCOON:031:1,2016-12-01T16:54:00Z,28.4073,-96.7122,0.0,4.7,57.0,7.3,'11111222,11111222,11111222' 
TCOON,ioos:station:TCOON:031:1,2016-12-01T17:00:00Z,28.4073,-96.7122,0.0,5.4,65.0,7.5,'11111222,11111222,11111222' 
TCOON,ioos:station:TCOON:031:1,2016-12-01T17:06:00Z,28.4073,-96.7122,0.0,5.7,59.0,8.0,'11111222,11111222,11111222' 
TCOON,ioos:station:TCOON:031:1,2016-12-01T17:12:00Z,28.4073,-96.7122,0.0,5.4,71.0,9.3,'11111222,11111222,11111222' 
TCOON,ioos:station:TCOON:031:1,2016-12-01T17:18:00Z,28.4073,-96.7122,0.0,5.6,63.0,8.2,'11111222,11111222,11111222' 
TCOON,ioos:station:TCOON:031:1,2016-12-01T17:24:00Z,28.4073,-96.7122,0.0,6.0,70.0,8.7,'11111222,11111222,11111222' 
TCOON,ioos:station:TCOON:031:1,2016-12-01T17:30:00Z,28.4073,-96.7122,0.0,4.7,66.0,8.1,'11111222,11111222,11111222' 
TCOON,ioos:station:TCOON:031:1,2016-12-01T17:36:00Z,28.4073,-96.7122,0.0,4.7,66.0,8.1,'1111122,1111122,1111122' 
TCOON,ioos:station:TCOON:031:1,2016-12-01T17:42:00Z,28.4073,-96.7122,0.0,5.0,58.0,8.7,'11111222,11111222,11111222' 
TCOON,ioos:station:TCOON:031:1,2016-12-01T17:48:00Z,28.4073,-96.7122,0.0,5.3,82.0,7.5,'11111222,11111222,11111222' 
TCOON,ioos:station:TCOON:031:1,2016-12-01T17:54:00Z,28.4073,-96.7122,0.0,5.6,55.0,7.2,'11111222,11111222,11111222' 
TCOON,ioos:station:TCOON:031:1,2016-12-01T18:00:00Z,28.4073,-96.7122,0.0,4.7,67.0,6.7,'11111222,11111222,11111222' 
TCOON,ioos:station:TCOON:031:1,2016-12-01T18:06:00Z,28.4073,-96.7122,0.0,4.7,60.0,8.1,'11111222,11111222,11111222' 
TCOON,ioos:station:TCOON:031:1,2016-12-01T18:12:00Z,28.4073,-96.7122,0.0,4.9,63.0,7.6,'11111222,11111222,11111222' 
TCOON,ioos:station:TCOON:031:1,2016-12-01T18:18:00Z,28.4073,-96.7122,0.0,4.9,63.0,7.6,'1111122,1111122,1111122' 
TCOON,ioos:station:TCOON:031:1,2016-12-01T18:24:00Z,28.4073,-96.7122,0.0,5.4,66.0,7.6,'11111222,11111222,11111222' 
TCOON,ioos:station:TCOON:031:1,2016-12-01T18:30:00Z,28.4073,-96.7122,0.0,4.4,73.0,6.9,'11111222,11111222,11111222' 
TCOON,ioos:station:TCOON:031:1,2016-12-01T18:36:00Z,28.4073,-96.7122,0.0,4.4,63.0,6.2,'11111222,11111222,11111222' 
TCOON,ioos:station:TCOON:031:1,2016-12-01T18:42:00Z,28.4073,-96.7122,0.0,3.6,56.0,6.3,'11111222,11111222,11111222' 
TCOON,ioos:station:TCOON:031:1,2016-12-01T18:48:00Z,28.4073,-96.7122,0.0,3.4,65.0,6.2,'11111222,11111222,11111222' 
TCOON,ioos:station:TCOON:031:1,2016-12-01T18:54:00Z,28.4073,-96.7122,0.0,4.1,65.0,5.9,'11111222,11111222,11111222' 
TCOON,ioos:station:TCOON:031:1,2016-12-01T19:00:00Z,28.4073,-96.7122,0.0,4.3,69.0,9.0,'11111222,11111222,11111222' 
TCOON,ioos:station:TCOON:031:1,2016-12-01T19:06:00Z,28.4073,-96.7122,0.0,4.6,69.0,7.8,'11111222,11111222,11111222' 
TCOON,ioos:station:TCOON:031:1,2016-12-01T19:12:00Z,28.4073,-96.7122,0.0,4.7,60.0,7.2,'11111222,11111222,11111222' 
TCOON,ioos:station:TCOON:031:1,2016-12-01T19:18:00Z,28.4073,-96.7122,0.0,4.7,60.0,7.2,'1111122,1111122,1111122' 
TCOON,ioos:station:TCOON:031:1,2016-12-01T19:24:00Z,28.4073,-96.7122,0.0,3.0,73.0,7.7,'11111222,11111222,11111222' 
TCOON,ioos:station:TCOON:031:1,2016-12-01T19:30:00Z,28.4073,-96.7122,0.0,4.8,73.0,6.9,'11111222,11111222,11111222' 
TCOON,ioos:station:TCOON:031:1,2016-12-01T19:36:00Z,28.4073,-96.7122,0.0,4.8,66.0,7.9,'11111222,11111222,11111222' 
TCOON,ioos:station:TCOON:031:1,2016-12-01T19:42:00Z,28.4073,-96.7122,0.0,4.7,65.0,6.7,'11111222,11111222,11111222' 
TCOON,ioos:station:TCOON:031:1,2016-12-01T19:48:00Z,28.4073,-96.7122,0.0,5.4,63.0,7.8,'11111222,11111222,11111222' 
TCOON,ioos:station:TCOON:031:1,2016-12-01T19:54:00Z,28.4073,-96.7122,0.0,4.0,70.0,6.5,'11111222,11111222,11111222' 
TCOON,ioos:station:TCOON:031:1,2016-12-01T20:00:00Z,28.4073,-96.7122,0.0,3.2,59.0,6.6,'11111222,11111222,11111222' 
TCOON,ioos:station:TCOON:031:1,2016-12-01T20:06:00Z,28.4073,-96.7122,0.0,3.5,71.0,6.3,'11111222,11111222,11111222' 
TCOON,ioos:station:TCOON:031:1,2016-12-01T20:12:00Z,28.4073,-96.7122,0.0,3.3,74.0,6.6,'11111222,11111222,11111222' 
TCOON,ioos:station:TCOON:031:1,2016-12-01T20:18:00Z,28.4073,-96.7122,0.0,3.3,74.0,6.6,'1111122,1111122,1111122' 
TCOON,ioos:station:TCOON:031:1,2016-12-01T20:24:00Z,28.4073,-96.7122,0.0,5.0,80.0,7.7,'11111222,11111222,11111222' 
TCOON,ioos:station:TCOON:031:1,2016-12-01T20:30:00Z,28.4073,-96.7122,0.0,4.9,59.0,7.0,'11111222,11111222,11111222' 